Regional Weather Roundup
Issued by NWS Wakefield, VA

Home | Current Version | Previous Version | Text Only | Print | Product List | Glossary Off
Versions: 1 2 3 4 5 6 7 8 9 10 11 12 13 14 15 16 17 18 19 20 21 22 23 24 25 26 27 28 29 30 31 32 33 34 35 36 37 38 39 40 41 42 43 44 45 46 47 48 49 50

000
ASUS41 KAKQ 031015
RWRAKQ

REGIONAL WEATHER ROUNDUP
NATIONAL WEATHER SERVICE WAKEFIELD VA
600 AM EDT SUN MAY 03 2015

Note: "fair" indicates few or no clouds below 12,000 feet with no
significant weather and/or obstructions to visibility. * = Denotes
station may not report precipitation (e.g., rain,snow,etc.),
thunder or fog.

VAZ042-051-052>054-056-031100-
NORTHERN VIRGINIA

CITY           SKY/WX    TMP DP  RH WIND       PRES   REMARKS
WASH NATIONAL  PTCLDY    57  49  74 S3        30.06R
DULLES         PTCLDY    44  41  89 CALM      30.07R
FORT BELVOIR   PTCLDY    46  44  95 CALM      30.07R
QUANTICO       MOCLDY    54  45  71 CALM      30.08R
FREDERICKSBRG* MOCLDY    49  49 100 CALM      30.07S
STAFFORD*      MOCLDY    46  32  59 CALM      30.11S
WARRENTON      MOCLDY    45  45 100 CALM      30.07S
CULPEPER*      NOT AVBL
MANASSAS*      MOCLDY    46  45  93 CALM      30.08R
LEESBURG*      CLEAR     50  43  76 CALM      30.08R
WINCHESTER     CLEAR     50  37  62 W3        30.09S
FRONT ROYAL*   FAIR      48  41  76 S6        30.09R
LURAY*         PTSUNNY   45  45 100 CALM      30.11S
$$

VAZ048-049-060>072-079>083-031100-
CENTRAL AND SOUTH CENTRAL VIRGINIA

CITY           SKY/WX    TMP DP  RH WIND       PRES   REMARKS
RICHMOND       PTCLDY    57  44  62 W7        30.08S
CHESTERFIELD*  FAIR      52  37  58 W5        30.10S
PETERSBURG*    CLEAR     55  45  69 W5        30.10R
HANOVER        CLEAR     47  45  93 CALM      30.10R
TAPPAHANNOCK*  CLEAR     53  42  65 W3        30.08R
QUINTON*       FAIR      46  45  97 CALM      30.08R
CHARLOTTSVILLE PTCLDY    49  44  83 CALM      30.09S
GORDONSVILLE*  PTSUNNY   46  44  92 SW5       30.08S
ORANGE*        CLEAR     50  43  76 CALM      30.10R
LOUISA*        CLEAR     48  45  87 W5        30.07S
BUMPASS*       PTSUNNY   46  43  91 CALM      30.09R
FARMVILLE*     CLOUDY    49  49 100 CALM      30.09S
CREWE*         CLOUDY    49  47  95 CALM      30.10S
FORT PICKETT*  FAIR      48  47  96 SW3       30.10S
CHASE CITY*    CLOUDY    51  51 100 CALM      30.12R
CLARKSVILLE*   CLOUDY    46  46 100 CALM      30.12R
SOUTH HILL*    PTCLDY    52  47  83 CALM      30.17R
LAWRENCEVILLE* FAIR      49  47  96 W3        30.10S
EMPORIA*       CLEAR     43  43 100 CALM      30.12R
$$

VAZ088>098-031100-
SOUTHEAST VIRGINIA

CITY           SKY/WX    TMP DP  RH WIND       PRES   REMARKS
NORFOLK        CLEAR     51  47  86 SW8       30.08S
VIRGINIA BEACH CLEAR     51  48  89 SW6       30.08S
NORFOLK NAVAL  PTCLDY    56  49  77 SW3       30.10R
WEST POINT*    CLEAR     46  44  91 CALM      30.10R
SALUDA*        FAIR      48  46  95 NW3       30.07R
NEWPORT NEWS   CLEAR     53  48  83 SW6       30.09R
LANGLEY AFB    CLEAR     51  48  91 W6        30.08R
FORT EUSTIS    CLEAR     53  53 100 W3        30.07R
WILLIAMSBURG*  CLEAR     52  48  87 CALM      30.10R
HR EXEC AP*    FAIR      45  39  81 CALM      30.11S
FRANKLIN*      CLEAR     46  46  98 CALM      30.11R
WAKEFIELD      CLEAR     46  44  93 CALM      30.10R FOG
$$

VAZ020-022-025-037-045-031100-
WEST CENTRAL AND SOUTHWEST VIRGINIA

CITY           SKY/WX    TMP DP  RH WIND       PRES   REMARKS
STAUNTON*      CLEAR     45  42  88 CALM      30.14R
WAYNESBORO*    FAIR      44  40  88 CALM      30.12S
HOT SPRINGS VA PTCLDY    51  31  45 NW3       30.16S
LYNCHBURG      CLEAR     45  44  97 CALM      30.13S
DANVILLE       CLEAR     47  44  90 SW3       30.13R
SOUTH BOSTON*  FAIR      46  45  95 CALM      30.12S
MARTINSVILLE   CLEAR     38  38 100 CALM      30.17R
ROANOKE        CLEAR     46  39  76 NW3       30.16R
BLACKSBURG     CLEAR     38  38  99 CALM      30.20R FOG
DUBLIN*        CLEAR     41  39  92 CALM      30.18R
MARION*        CLEAR     39  37  90 CALM      30.20S
HILLSVILLE*    CLEAR     45  37  72 SW7       30.17S
RICHLANDS*     FAIR      50  -5  10 CALM      30.17R
WISE*          CLEAR     54  30  40 CALM      30.17S
ABINGDON*      CLEAR     44  39  82 E6        30.16S
$$

MDZ021>025-VAZ099-100-031100-
SOUTHERN MARYLAND AND THE DELMARVA PENINSULA

CITY           SKY/WX    TMP DP  RH WIND       PRES   REMARKS
PATUXENT RIVER MOCLDY    55  46  71 W9        30.05R
BAY BRIDGE APT   N/A    N/A N/A N/A W6        30.04S
LEONARDTOWN    MOCLDY    52  45  76 W5        30.07R
DOVER          CLOUDY    47  47 100 NE5       30.01R
GEORGETOWN     MOCLDY    46  45  96 S5        30.05S
EASTON         CLEAR     54  54 100 CALM      30.07S
CAMBRIDGE      PTCLDY    52  50  93 CALM      30.04S
SALISBURY      CLEAR     42  40  92 CALM      30.05R
OCEAN CITY     CLEAR     50  48  93 SW7       30.06S
WALLOPS ISLAND CLEAR     49  48  97 W3        30.06S
ACCOMACK*      CLEAR     52  50  93 W6        30.07R
$$

NCZ012>017-030>032-031100-
NORTH CENTRAL AND EASTERN NORTH CAROLINA

CITY           SKY/WX    TMP DP  RH WIND       PRES   REMARKS
ROANOKE RAPIDS FAIR      45  43  93 CALM      30.11R
RALEIGH        PTCLDY    47  45  93 CALM      30.14R
ELIZABETH CITY CLEAR     48  47  96 SW6       30.11R
AHOSKIE*       CLEAR     44  44  98 CALM      30.12R FOG
EDENTON*       CLEAR     55  51  87 W3        30.11R
CURRITUCK*     CLEAR     52  49  91 SW3       30.11R
KILL DEVIL HLS CLEAR     54  52  92 W5        30.09S
MANTEO         CLEAR     53  51  90 W5        30.11S
CAPE HATTERAS  CLEAR     50  50 100 W3        30.11R
TARBORO*       FOG       45  44  97 CALM      30.13R VSB 1
GOLDSBORO      CLEAR     47  47 100 E1        30.11R
WASHINGTON     CLEAR     49  48  97 W3        30.13R
GREENVILLE     CLEAR     52  52 100 CALM      30.13S FOG
NEW BERN       FOG       46  43  89 CALM      30.13S VSB 1
WILMINGTON     FOG       50  48  93 CALM      30.13R VSB 3/4
$$

VAZ048-031100-
ELSEWHERE

CITY           SKY/WX    TMP DP  RH WIND       PRES   REMARKS
HARRISBURG PA  PTCLDY    47  41  80 CALM      30.06R
BALTIMORE      PTCLDY    46  42  86 SW5       30.04R
ANNAPOLIS      CLEAR     56  43  61 W3        30.04R
ANDREWS AFB    CLEAR     51  43  74 W6        30.05R
PHILADELPHIA   MOCLDY    50  43  77 E5        30.06R
HENDERSON NC   CLOUDY    49  47  91 SW3       30.12S
GREENSBORO     PTCLDY    48  43  82 CALM      30.13R
ROCKY MOUNT    CLEAR     47  46  97 CALM      30.12R FOG
$$

VAZ100-031100-
MARINE

STATION/POSITION TIME  TEMP    WIND        PRES    WAVE   SWELL
                       AIR SEA DIR/SP/G            HT/PER HT/PER
                 (UTC) (F)     (DEG/KT/KT) (MB)    (FT/S) (FT/S)
BRANDYWINE LGT   0900      53  210/ 11/ 12 1017.2R
CAPE MAY NJ      0900   51 57  160/  4/  6 1017.0R
LEWES DE         0900   51 53  210/  5/  9 1017.0F
15NM E FENWICK I 0950   49 48              1017.6R   5/ 8
OCEAN-CITY-INLET 0900   53 54  210/ 10/ 12 1017.4R
WACHAPREAGUE VA  0900   51 59  260/  1/  2 1017.9R
THOMAS POINT MD  1000   59 56  290/  7/  7 1018.0R
GOOSES REEF MD   1000   58 56                N/A     0
COVE POINT MD    0900   59     280/  9/ 13 1017.7R
SOLOMONS ISLAND  0900      59                N/A
BISHOPS HEAD MD  0900   58 60  220/  6/  7 1016.9R
PINEY POINT MD   0900          290/  6/  7   N/A
CAMBRIDGE MD     0900   54 60  200/  2/  2 1017.0R
LEWISETTA VA     0900   58 61              1017.4R
RAPPAHANNOCK LGT 0900          210/  7/  8 1018.5R
YORK RVR RNG VA  0900   57     260/ 11/ 12 1017.6R
YORKTOWN VA      0900   56 60  260/  4/  7 1018.0R
JAMESTOWN VA     1000   52 62  250/  4/  6 1017.9R
DOMINION TERM VA 0900   57     250/  6/  7 1018.7R
KIPTOPEKE VA     0900      62  260/  5/  6   N/A
CHES BAY BRIDGE  0900   56 58  230/ 11/ 12 1017.9R
CAPE HENRY VA    0900   55     230/ 11/ 13 1017.1R
CHESAPEAKE LGHT  0900   55     240/ 13/ 13 1019.2R
WILLOUBY STN VA  0900   57     240/  9/ 12 1019.0R
S CRANEY ISL VA  0900          240/  4/  5 1018.6R
CAPE HENRY BUOY  0928      52                N/A     5/11   2/11
1ST LANDING BUOY 1000      57                N/A     3/ 5
CAPE CHARLES BUO 0926      54                N/A     5/11   5/11
OFFSHORE WE BUOY 0911      50                N/A     5/11   5/11
64NM E OF VA BCH 0950   54 56  260/  4/  6 1018.9R   6/11   5/11
DUCK PIER NC     0900   57 53  240/  9/ 10 1018.0R
44056 DUCK FRF   0911      54                N/A     6/11   3/11
OREGON INLET NC  0900   55 56  250/  4/  5 1019.2R
HATTERAS NC      0900   60 61  270/  8/  8 1018.8R
DIAMOND SHLS NC  0950   57     300/  6/  6 1019.5R   5/11   5/11
CAPE LOOKOUT NC  1000   60     260/  4/  4 1019.6R
$$


USA.gov is the U.S. government's official web portal to all federal, state and local government web resources and services.